FW0683 Weather Reports


time (UTC)temp
F
wind
direction
speed
knots
gust
knots
rain 1hr
in
rain 24hr
in
rain mn
in
humidity
%
barometer
mb
20260506140048 67 110 0.0 2.6 0.00 0.00 0.00 69 1011.9
20260506134537 67 96 0.0 6.1 0.00 0.00 0.00 68 1012.2
20260506133043 66 261 0.0 1.7 0.00 0.00 0.00 69 1012.5
20260506131535 66 264 0.0 1.7 0.00 0.00 0.00 69 1012.3
20260506130030 66 96 0.0 10.4 0.00 0.00 0.00 70 1012.4
20260506124529 65 229 0.0 0.9 0.00 0.00 0.00 70 1012.2
20260506123029 65 239 0.0 2.6 0.00 0.00 0.00 70 1012.6
20260506121530 64 292 0.0 2.6 0.00 0.00 0.00 72 1012.5
20260506120036 64 260 0.0 7.8 0.00 0.00 0.00 73 1012.8
20260506114526 63 266 0.0 0.9 0.00 0.00 0.00 73 1012.7
20260506113026 63 29 0.0 1.7 0.00 0.00 0.00 74 1012.9
20260506111526 62 283 0.0 0.9 0.00 0.00 0.00 74 1012.8
20260506110025 61 253 0.0 0.0 0.00 0.00 0.00 75 1013.0
20260506104523 61 257 0.0 0.9 0.00 0.00 0.00 75 1012.9
20260506103030 61 342 0.0 0.0 0.00 0.00 0.00 75 1013.0
20260506101533 61 326 0.0 0.0 0.00 0.00 0.00 75 1013.0
20260506100029 61 101 0.0 0.0 0.00 0.00 0.00 75 1013.0
20260506094521 61 24 0.0 0.0 0.00 0.00 0.00 74 1012.8
20260506093019 61 248 0.0 0.0 0.00 0.00 0.00 74 1013.0
20260506091519 61 76 0.0 2.6 0.00 0.00 0.00 73 1012.8
20260506090016 62 249 0.0 0.9 0.00 0.00 0.00 72 1012.8
20260506084518 62 212 0.0 1.7 0.00 0.00 0.00 72 1012.8
20260506083014 62 164 0.0 0.9 0.00 0.00 0.00 71 1012.8
20260506081517 62 229 0.0 5.2 0.00 0.00 0.00 70 1012.8
20260506073012 63 3 0.0 0.0 0.00 0.00 0.00 67 1012.5
20260506071510 63 141 0.0 0.9 0.00 0.00 0.00 67 1012.4
20260506061506 63 211 0.0 0.0 0.00 0.00 0.00 65 1012.2
20260506044658 64 241 0.0 0.9 0.00 0.00 0.00 62 1012.8
20260506043054 64 311 0.0 0.9 0.00 0.00 0.00 60 1012.8
20260506041554 65 248 0.0 0.9 0.00 0.00 0.00 59 1012.7
20260506040049 65 198 0.0 4.3 0.00 0.00 0.00 58 1012.6
20260506034549 66 3 0.0 3.5 0.00 0.00 0.00 58 1012.4
20260506033052 66 95 0.0 0.0 0.00 0.00 0.00 57 1012.4
20260506031549 67 149 0.0 1.7 0.00 0.00 0.00 57 1012.5
20260506030048 67 252 0.0 5.2 0.00 0.00 0.00 56 1012.3
20260506024549 68 304 0.0 3.5 0.00 0.00 0.00 55 1012.3
20260506023056 69 110 0.0 0.9 0.00 0.00 0.00 53 1012.2
20260506021555 69 236 0.0 3.5 0.00 0.00 0.00 51 1012.3
20260506020048 70 113 0.0 2.6 0.00 0.00 0.00 50 1012.3
20260506014546 70 309 0.0 0.9 0.00 0.00 0.00 49 1012.3
20260506013045 70 271 0.0 0.9 0.00 0.00 0.00 50 1012.2
20260506011545 70 102 0.0 0.0 0.00 0.00 0.00 51 1012.3
20260506010054 70 349 0.0 0.0 0.00 0.00 0.00 50 1012.3
20260506004549 71 141 0.0 0.9 0.00 0.00 0.00 49 1011.4
20260506003044 72 288 0.0 0.9 0.00 0.00 0.00 48 1010.9
20260506001547 73 113 0.0 0.9 0.00 0.00 0.00 47 1010.6
20260506000042 74 314 0.0 8.7 0.00 0.00 0.00 42 1010.2
20260505234601 75 226 0.0 7.0 0.00 0.00 0.00 42 1009.9
20260505233043 75 205 0.0 6.1 0.00 0.00 0.00 41 1009.6
20260505231541 76 196 0.0 12.2 0.00 0.00 0.00 40 1009.2
20260505230039 77 230 0.0 4.3 0.00 0.00 0.00 41 1008.9
20260505224540 78 33 0.0 9.6 0.00 0.00 0.00 38 1008.8
20260505223040 79 265 0.0 1.7 0.00 0.00 0.00 38 1008.5
20260505221539 79 288 0.9 11.3 0.00 0.00 0.00 37 1008.2
20260505220041 80 79 0.0 3.5 0.00 0.00 0.00 37 1008.0
20260505214559 81 113 0.9 9.6 0.00 0.00 0.00 35 1007.9
20260505213037 81 239 0.0 7.8 0.00 0.00 0.00 33 1007.7
20260505211535 82 112 1.7 8.7 0.00 0.00 0.00 33 1007.6
20260505210033 81 236 0.9 7.8 0.00 0.00 0.00 35 1007.7
20260505204532 81 337 1.7 17.4 0.00 0.00 0.00 35 1007.5
20260505203036 82 211 0.0 9.6 0.00 0.00 0.00 34 1007.6
20260505201536 83 115 0.0 7.8 0.00 0.00 0.00 33 1007.8
20260505200028 81 233 0.0 7.0 0.00 0.00 0.00 35 1007.9
20260505194528 83 136 0.0 15.6 0.00 0.00 0.00 34 1008.1
20260505193026 84 257 0.0 8.7 0.00 0.00 0.00 33 1008.0
20260505191524 84 219 0.9 11.3 0.00 0.00 0.00 30 1008.5
20260505190024 85 269 0.0 8.7 0.00 0.00 0.00 33 1008.7
20260505184523 85 216 0.9 9.6 0.00 0.00 0.00 31 1009.1
20260505183019 84 152 0.0 9.6 0.00 0.00 0.00 33 1009.1
20260505181517 84 330 0.0 11.3 0.00 0.00 0.00 33 1009.4
20260505180027 83 257 0.0 9.6 0.00 0.00 0.00 35 1009.4
20260505174525 83 133 0.0 6.1 0.00 0.00 0.00 36 1009.6
20260505173015 82 142 0.0 11.3 0.00 0.00 0.00 36 1010.1
20260505171512 81 212 0.9 16.5 0.00 0.00 0.00 37 1010.2
20260505170006 81 27 0.0 5.2 0.00 0.00 0.00 38 1010.6
20260505164504 81 241 0.0 5.2 0.00 0.00 0.00 38 1010.7
20260505163002 81 293 0.0 4.3 0.00 0.00 0.00 37 1010.9
20260505161621 81 155 0.0 0.9 0.00 0.00 0.00 39 1011.1
20260505160104 79 321 0.0 2.6 0.00 0.00 0.00 40 1011.6
20260505153051 77 217 0.0 1.7 0.00 0.00 0.00 43 1012.1
20260505151547 76 278 0.0 1.7 0.00 0.00 0.00 44 1012.3